This is the latest recevied weather packets stored in our database for station/object EA4HRG-10. If no packets are shown the sender has not sent any weather packets the latest 10 day(s).
| Time | Temp. | Humidity | Pressure | Rain* | Wind** | Luminosity | Snow |
|---|---|---|---|---|---|---|---|
| 1788153037 | 10° C | 64% | 1022 hPa | - | - | - | - |
| 1788152137 | 10.56° C | 63% | 1021.7 hPa | - | - | - | - |
| 1788151237 | 10.56° C | 62% | 1021.7 hPa | - | - | - | - |
| 1788150337 | 10.56° C | 62% | 1021.7 hPa | - | - | - | - |
| 1788149437 | 11.11° C | 61% | 1021.5 hPa | - | - | - | - |
| 1788148537 | 11.11° C | 61% | 1021.5 hPa | - | - | - | - |
| 1788147637 | 11.11° C | 59% | 1021.3 hPa | - | - | - | - |
| 1788146737 | 11.67° C | 57% | 1021.1 hPa | - | - | - | - |
| 1788145837 | 12.22° C | 56% | 1020.9 hPa | - | - | - | - |
| 1788144937 | 12.22° C | 55% | 1021 hPa | - | - | - | - |
| 1788144037 | 12.22° C | 54% | 1020.9 hPa | - | - | - | - |
| 1788143137 | 12.78° C | 54% | 1020.7 hPa | - | - | - | - |
| 1788142237 | 13.33° C | 50% | 1020.2 hPa | - | - | - | - |
| 1788141337 | 13.33° C | 51% | 1020.4 hPa | - | - | - | - |
| 1788140437 | 13.33° C | 51% | 1020.4 hPa | - | - | - | - |
| 1788139537 | 13.33° C | 51% | 1020.4 hPa | - | - | - | - |
| 1788138637 | 13.89° C | 50% | 1020.2 hPa | - | - | - | - |
| 1788137737 | 13.33° C | 51% | 1020.3 hPa | - | - | - | - |
| 1788136837 | 13.33° C | 50% | 1020 hPa | - | - | - | - |
| 1788136454 | 13.89° C | 49% | 1019.9 hPa | - | - | - | - |
| 1788135937 | 13.89° C | 49% | 1019.9 hPa | - | - | - | - |
| 1788135037 | 14.44° C | 49% | 1019.7 hPa | - | - | - | - |
| 1788134137 | 14.44° C | 49% | 1019.8 hPa | - | - | - | - |
| 1788133237 | 15° C | 48% | 1019.6 hPa | - | - | - | - |
| 1788132337 | 15° C | 47% | 1019.6 hPa | - | - | - | - |
* Rain since midnight (hover to see other rain measurements)
** Current wind speed in m/s (hover to see current wind gust speed)